Location: Winthrop
(48.4780°N, 120.1850°W)
Time: 02:55:10
(UTC-07:00)

Transit 2A - Pass Details

Date: 21 June 2024
Orbit: 591 x 960 km, 66.7° (Epoch: 23 July)

Event Time Altitude Azimuth Distance (km) Brightness Sun altitude
Rises 00:49:25 0° 324° (NW) 3,500 10.4 -18.0°
Reaches altitude 10° 00:51:52 10° 325° (NW) 2,599 9.6 -18.0°
Maximum altitude 00:58:01 89° 56° (ENE) 952 6.4 -18.1°
Enters shadow 01:02:14 23° 146° (SE) 1,923 7.6 -18.1°
